CW4320 Weather Reports


time (UTC)temp
C
wind
direction
speed
KPH
gust
KPH
rain 1hr
cm
rain 24hr
cm
rain mn
cm
humidity
%
barometer
mb
20260507070024 11 98 4.8 6.4 0.00 0.08 0.00 80 1011.5
20260507065038 11 82 3.2 8.0 0.00 0.08 0.00 80 1011.5
20260507064527 11 96 4.8 8.0 0.00 0.08 0.00 80 1011.5
20260507063524 11 94 3.2 6.4 0.00 0.08 0.00 80 1011.6
20260507063030 10 94 3.2 4.8 0.00 0.08 0.00 80 1011.6
20260507062033 10 75 4.8 8.0 0.00 0.08 0.00 80 1011.8
20260507061523 10 75 4.8 8.0 0.00 0.08 0.00 80 1011.8
20260507061026 10 117 3.2 4.8 0.00 0.08 0.00 80 1011.8
20260507060548 10 117 1.6 4.8 0.00 0.08 0.00 80 1011.8
20260507060030 10 117 1.6 4.8 0.00 0.08 0.00 80 1011.8
20260507055538 10 117 3.2 4.8 0.00 0.08 0.00 80 1011.8
20260507054533 9 121 3.2 6.4 0.00 0.08 0.00 80 1011.8
20260507053529 9 101 3.2 6.4 0.00 0.08 0.00 80 1011.8
20260507053035 9 115 1.6 6.4 0.00 0.08 0.00 80 1011.8
20260507052527 9 115 3.2 4.8 0.00 0.08 0.00 80 1011.9
20260507052032 8 124 1.6 4.8 0.00 0.08 0.00 80 1011.9
20260507051520 8 130 0.0 4.8 0.00 0.08 0.00 80 1011.9
20260507051027 8 130 1.6 4.8 0.00 0.08 0.00 80 1012.0
20260507050648 8 130 3.2 4.8 0.00 0.08 0.00 80 1012.0
20260507050027 8 130 3.2 4.8 0.00 0.08 0.00 80 1012.0
20260507045538 8 139 1.6 3.2 0.00 0.08 0.00 80 1012.0
20260507045024 8 139 3.2 3.2 0.00 0.08 0.00 80 1012.0
20260507044532 8 137 3.2 3.2 0.00 0.08 0.00 80 1012.0
20260507044035 8 139 1.6 3.2 0.00 0.08 0.00 80 1012.1
20260507043033 8 139 1.6 3.2 0.00 0.08 0.00 80 1012.1
20260507042527 9 139 0.0 3.2 0.00 0.08 0.00 80 1012.1
20260507042031 9 139 1.6 3.2 0.00 0.08 0.00 80 1012.1
20260507041539 9 139 1.6 4.8 0.00 0.08 0.00 80 1012.1
20260507041023 9 139 1.6 6.4 0.00 0.08 0.00 80 1012.4
20260507040544 9 136 3.2 6.4 0.00 0.08 0.00 80 1012.4
20260507040029 9 136 3.2 6.4 0.00 0.08 0.00 80 1012.4
20260507035537 9 144 4.8 6.4 0.00 0.08 0.00 80 1012.5
20260507035023 9 295 1.6 4.8 0.00 0.15 0.00 80 1012.5
20260507034533 9 295 3.2 4.8 0.00 0.15 0.00 80 1012.5
20260507033038 9 295 1.6 4.8 0.00 0.15 0.00 80 1012.4
20260507032527 9 295 1.6 4.8 0.00 0.15 0.00 80 1012.6
20260507032034 9 295 3.2 4.8 0.00 0.15 0.00 80 1012.6
20260507031521 9 295 3.2 4.8 0.00 0.15 0.00 80 1012.6
20260507031028 9 294 1.6 4.8 0.00 0.15 0.00 80 1012.6
20260507030548 9 295 1.6 4.8 0.00 0.15 0.00 80 1012.6
20260507030038 9 295 3.2 4.8 0.00 0.15 0.00 80 1012.6
20260507025024 9 295 1.6 4.8 0.00 0.15 0.00 80 1012.6
20260507024533 9 294 3.2 4.8 0.00 0.15 0.00 80 1012.6
20260507024036 9 294 3.2 4.8 0.00 0.15 0.00 80 1012.7
20260507023524 9 295 1.6 4.8 0.00 0.15 0.00 80 1012.7
20260507023029 9 295 1.6 3.2 0.00 0.15 0.00 80 1012.7
20260507021535 9 295 1.6 4.8 0.00 0.15 0.00 80 1012.8
20260507021038 9 294 3.2 4.8 0.00 0.15 0.00 80 1012.9
20260507020037 9 295 0.0 3.2 0.00 0.15 0.00 80 1012.9
20260507015523 9 295 0.0 3.2 0.00 0.15 0.00 80 1013.0
20260507015025 9 295 1.6 1.6 0.00 0.20 0.00 80 1013.0
20260507014534 10 295 0.0 3.2 0.00 0.20 0.00 80 1013.0
20260507014038 10 295 1.6 3.2 0.00 0.20 0.00 80 1013.0
20260507013526 10 294 0.0 3.2 0.00 0.20 0.00 80 1013.0
20260507013032 10 295 0.0 3.2 0.00 0.20 0.00 80 1013.0
20260507012523 10 294 0.0 1.6 0.00 0.20 0.00 80 1013.1
20260507012028 10 295 0.0 3.2 0.00 0.20 0.00 80 1013.1
20260507011535 10 295 1.6 3.2 0.00 0.20 0.00 80 1013.1
20260507011021 10 295 1.6 4.8 0.00 0.20 0.00 80 1013.1
20260507010603 10 294 0.0 4.8 0.00 0.20 0.00 80 1013.1
20260507010023 10 294 1.6 3.2 0.00 0.20 0.00 80 1013.1
20260507005532 10 295 0.0 0.0 0.00 0.20 0.00 80 1013.2
20260507004525 10 295 0.0 0.0 0.00 0.33 0.00 80 1013.2
20260507004031 10 295 0.0 1.6 0.00 0.33 0.00 80 1013.4
20260507003539 10 295 0.0 1.6 0.00 0.33 0.00 80 1013.4
20260507003028 10 295 0.0 0.0 0.00 0.33 0.00 80 1013.4
20260507002538 10 295 0.0 0.0 0.00 0.33 0.00 80 1013.5
20260507002027 10 295 0.0 0.0 0.00 0.33 0.00 80 1013.5
20260507001535 10 294 0.0 0.0 0.00 0.33 0.00 80 1013.5
20260507001021 11 295 0.0 0.0 0.00 0.33 0.00 80 1013.6
20260507000602 11 294 0.0 1.6 0.00 0.33 0.00 80 1013.6
20260507000024 11 295 0.0 1.6 0.00 0.33 0.00 80 1013.6
20260506235036 11 295 0.0 3.2 0.00 0.43 0.33 80 1013.6
20260506234524 11 295 0.0 3.2 0.00 0.43 0.33 80 1013.6
20260506234029 11 295 1.6 3.2 0.00 0.43 0.33 80 1013.7
20260506233522 11 295 0.0 0.0 0.00 0.43 0.33 80 1013.7
20260506233028 11 295 0.0 0.0 0.00 0.43 0.33 80 1013.7
20260506232536 11 295 0.0 1.6 0.00 0.43 0.33 80 1013.6
20260506232037 11 295 0.0 3.2 0.00 0.43 0.33 80 1013.6
20260506231525 12 295 0.0 4.8 0.00 0.43 0.33 80 1013.6
20260506231030 12 295 3.2 4.8 0.00 0.43 0.33 80 1013.6
20260506230550 12 295 1.6 3.2 0.00 0.43 0.33 80 1013.6
20260506230032 11 295 0.0 0.0 0.00 0.43 0.33 80 1013.6
20260506225520 11 295 0.0 0.0 0.00 0.43 0.33 80 1013.7
20260506225028 12 295 0.0 0.0 0.00 0.43 0.33 80 1013.7
20260506224539 12 295 0.0 0.0 0.00 0.43 0.33 80 1013.7
20260506224026 12 295 0.0 0.0 0.00 0.43 0.33 80 1013.9
20260506223038 12 295 0.0 0.0 0.00 0.43 0.33 80 1013.9
20260506222525 12 294 0.0 0.0 0.00 0.43 0.33 80 1013.8
20260506221521 12 295 0.0 0.0 0.00 0.43 0.33 80 1013.8
20260506221025 12 295 0.0 0.0 0.00 0.43 0.33 80 1014.0
20260506220547 12 295 0.0 0.0 0.00 0.43 0.33 80 1014.0
20260506220030 12 295 0.0 0.0 0.00 0.43 0.33 80 1014.0
20260506215537 13 295 0.0 0.0 0.00 0.43 0.33 80 1014.1
20260506215027 13 295 0.0 0.0 0.00 0.51 0.33 80 1014.1
20260506214535 13 295 0.0 0.0 0.00 0.51 0.33 80 1014.1
20260506214038 13 294 0.0 0.0 0.00 0.51 0.33 80 1014.1
20260506213524 13 295 0.0 0.0 0.00 0.51 0.33 80 1014.1
20260506213030 13 295 0.0 0.0 0.00 0.51 0.33 80 1014.1
20260506212027 13 295 0.0 0.0 0.00 0.51 0.33 80 1014.1
20260506211534 13 294 0.0 0.0 0.00 0.51 0.33 80 1014.1
20260506211021 13 295 0.0 0.0 0.00 0.51 0.33 80 1014.2
20260506210543 13 295 0.0 0.0 0.00 0.51 0.33 80 1014.2
20260506210026 13 295 0.0 0.0 0.00 0.51 0.33 80 1014.2
20260506205539 13 295 0.0 0.0 0.00 0.51 0.33 80 1014.1
20260506204531 13 295 0.0 0.0 0.00 0.51 0.33 80 1014.1
20260506204037 13 295 0.0 0.0 0.00 0.51 0.33 80 1014.1
20260506203526 13 295 0.0 0.0 0.00 0.51 0.33 80 1014.1
20260506203033 13 295 0.0 0.0 0.00 0.51 0.33 80 1014.1
20260506202521 13 294 0.0 0.0 0.00 0.51 0.33 80 1013.9
20260506202026 13 295 0.0 0.0 0.00 0.51 0.33 80 1013.9
20260506201535 13 295 0.0 0.0 0.00 0.51 0.33 80 1013.9
20260506201022 13 295 0.0 0.0 0.00 0.51 0.33 80 1013.7
20260506200546 13 295 0.0 0.0 0.00 0.51 0.33 80 1013.7
20260506200029 14 295 0.0 0.0 0.00 0.51 0.33 80 1013.7
20260506195537 14 295 0.0 0.0 0.00 0.51 0.33 80 1013.6
20260506195023 14 294 0.0 0.0 0.00 0.51 0.33 80 1013.6
20260506194532 14 295 0.0 0.0 0.00 0.51 0.33 80 1013.6
20260506194034 14 295 0.0 0.0 0.00 0.51 0.33 80 1013.5
20260506193524 14 294 0.0 0.0 0.00 0.51 0.33 80 1013.5
20260506193030 14 295 0.0 0.0 0.00 0.51 0.33 80 1013.5
20260506192539 14 295 0.0 0.0 0.00 0.51 0.33 80 1013.5
20260506192025 14 295 0.0 0.0 0.00 0.51 0.33 80 1013.5
20260506191537 14 295 0.0 0.0 0.00 0.51 0.33 80 1013.5
20260506191024 14 294 0.0 0.0 0.00 0.51 0.33 80 1013.5
20260506190547 14 294 0.0 0.0 0.00 0.51 0.33 80 1013.5
20260506190031 14 295 0.0 0.0 0.00 0.51 0.33 80 1013.5
20260506185026 14 295 0.0 0.0 0.00 0.61 0.33 80 1013.5
20260506184535 15 295 0.0 0.0 0.00 0.61 0.33 80 1013.5
20260506184039 15 295 0.0 0.0 0.00 0.61 0.33 80 1013.5
20260506183526 15 295 0.0 0.0 0.00 0.61 0.33 80 1013.5
20260506183031 15 295 0.0 1.6 0.00 0.61 0.33 80 1013.5
20260506182522 15 295 0.0 6.4 0.00 0.61 0.33 80 1013.6
20260506182028 15 294 1.6 6.4 0.00 0.61 0.33 80 1013.6
20260506181538 15 312 1.6 4.8 0.00 0.61 0.33 80 1013.6
20260506180602 15 312 1.6 4.8 0.00 0.61 0.33 80 1013.5
20260506180024 15 312 1.6 4.8 0.00 0.61 0.33 80 1013.5
20260506175534 15 326 3.2 6.4 0.00 0.61 0.33 80 1013.6
20260506175037 15 340 4.8 6.4 0.00 0.61 0.33 80 1013.6
20260506174526 15 340 4.8 6.4 0.00 0.61 0.33 80 1013.6
20260506174032 15 333 4.8 6.4 0.00 0.61 0.33 80 1013.6
20260506173539 15 359 3.2 6.4 0.00 0.61 0.33 80 1013.6
20260506173031 15 359 1.6 6.4 0.00 0.61 0.33 80 1013.6
20260506172539 15 321 3.2 8.0 0.00 0.61 0.33 80 1013.6
20260506172023 15 1 6.4 8.0 0.00 0.61 0.33 80 1013.6
20260506171533 15 360 6.4 8.0 0.00 0.61 0.33 80 1013.6
20260506171039 15 360 6.4 9.7 0.00 0.61 0.33 80 1013.6
20260506170600 15 359 6.4 9.7 0.00 0.61 0.33 80 1013.6
20260506170023 15 359 3.2 8.0 0.00 0.61 0.33 80 1013.6
20260506165530 15 322 3.2 11.3 0.00 0.61 0.33 80 1013.6
20260506164521 15 302 4.8 14.5 0.00 0.61 0.33 80 1013.6
20260506163535 15 309 6.4 12.9 0.00 0.61 0.33 80 1013.6
20260506163025 15 354 6.4 12.9 0.00 0.61 0.33 80 1013.6
20260506162535 15 360 6.4 14.5 0.00 0.61 0.33 80 1013.7
20260506162038 15 326 9.7 14.5 0.00 0.61 0.33 80 1013.7
20260506161525 15 356 8.0 12.9 0.00 0.61 0.33 80 1013.7
20260506161032 15 328 6.4 14.5 0.00 0.61 0.33 80 1013.8
20260506160554 15 325 8.0 14.5 0.00 0.61 0.33 80 1013.8
20260506160037 15 302 8.0 16.1 0.00 0.61 0.33 80 1013.8
20260506155525 15 323 8.0 16.1 0.00 0.61 0.33 80 1013.9
20260506155039 15 359 9.7 14.5 0.00 0.61 0.33 80 1013.9
20260506154525 15 350 8.0 16.1 0.00 0.61 0.33 80 1013.9
20260506154035 16 290 4.8 16.1 0.00 0.61 0.33 80 1014.0
20260506153523 15 297 8.0 12.9 0.00 0.61 0.33 80 1014.0
20260506153029 15 311 8.0 16.1 0.00 0.61 0.33 80 1014.0
20260506152538 15 297 8.0 16.1 0.00 0.61 0.33 80 1014.1
20260506152023 15 327 4.8 11.3 0.00 0.61 0.33 80 1014.1
20260506150602 15 340 11.3 17.7 0.00 0.61 0.33 80 1014.1
20260506150024 15 323 6.4 17.7 0.00 0.61 0.33 80 1014.1
20260506145035 16 339 8.0 17.7 0.00 0.74 0.33 80 1014.2
20260506144524 16 329 9.7 17.7 0.00 0.74 0.33 80 1014.2
20260506144035 15 301 6.4 16.1 0.00 0.74 0.33 80 1014.3
20260506142523 16 346 9.7 17.7 0.00 0.74 0.33 80 1014.4
20260506142031 16 359 4.8 14.5 0.00 0.74 0.33 80 1014.4
20260506141540 15 250 9.7 17.7 0.00 0.74 0.33 80 1014.4
20260506141040 15 295 6.4 19.3 0.00 0.74 0.33 80 1014.5
20260506135534 16 347 11.3 17.7 0.00 0.74 0.33 80 1014.6
20260506135039 16 290 4.8 16.1 0.00 0.74 0.33 80 1014.6
20260506134527 16 302 6.4 19.3 0.00 0.74 0.33 80 1014.6
20260506134030 16 307 14.5 19.3 0.00 0.74 0.33 80 1014.7
20260506133523 16 303 11.3 17.7 0.00 0.74 0.33 80 1014.7
20260506132539 16 333 9.7 19.3 0.00 0.74 0.33 80 1014.6
20260506132026 16 276 11.3 19.3 0.00 0.74 0.33 80 1014.6
20260506131039 16 295 14.5 22.5 0.00 0.74 0.33 80 1014.6
20260506130559 16 285 12.9 17.7 0.00 0.74 0.33 80 1014.6
20260506130040 16 339 12.9 17.7 0.00 0.74 0.33 80 1014.6
20260506125039 16 292 9.7 19.3 0.00 0.74 0.33 80 1014.7
20260506124527 16 312 8.0 22.5 0.00 0.74 0.33 80 1014.7
20260506124029 16 294 9.7 22.5 0.00 0.74 0.33 80 1014.7
20260506123522 16 304 11.3 20.9 0.00 0.74 0.33 80 1014.7
20260506122539 16 295 11.3 20.9 0.00 0.74 0.33 80 1014.7
20260506122024 16 278 9.7 19.3 0.00 0.74 0.33 80 1014.7
20260506121533 16 289 14.5 19.3 0.00 0.74 0.33 80 1014.7
20260506121021 16 290 11.3 20.9 0.00 0.74 0.33 80 1014.7
20260506120543 16 257 9.7 20.9 0.00 0.74 0.33 80 1014.7
20260506120025 16 248 8.0 20.9 0.00 0.74 0.33 80 1014.7
20260506115535 16 311 11.3 22.5 0.00 0.74 0.33 80 1014.7
20260506115038 15 224 9.7 22.5 0.00 0.74 0.33 80 1014.6
20260506114529 15 248 8.0 17.7 0.00 0.74 0.33 80 1014.6
20260506113524 15 269 8.0 22.5 0.00 0.74 0.33 80 1014.6
20260506113030 15 317 12.9 20.9 0.00 0.74 0.33 80 1014.6
20260506112025 15 272 11.3 20.9 0.00 0.74 0.33 80 1014.6
20260506111024 15 283 14.5 22.5 0.00 0.74 0.33 80 1014.6
20260506110603 15 255 9.7 24.1 0.00 0.74 0.33 80 1014.6
20260506105531 15 295 8.0 22.5 0.00 0.74 0.33 80 1014.6
20260506105036 15 317 6.4 19.3 0.00 0.74 0.33 80 1014.6
20260506103035 15 313 12.9 22.5 0.03 0.74 0.33 80 1014.6
20260506102034 15 250 6.4 20.9 0.03 0.74 0.33 80 1014.6
20260506101539 15 250 6.4 19.3 0.03 0.74 0.33 80 1014.6
20260506101025 15 253 8.0 19.3 0.03 0.74 0.33 80 1014.6
20260506100544 15 236 8.0 19.3 0.03 0.74 0.33 80 1014.6
20260506095540 14 228 12.9 17.7 0.05 0.74 0.33 80 1014.5
20260506095026 13 300 8.0 17.7 0.05 0.74 0.33 80 1014.5
20260506094035 13 258 6.4 27.4 0.08 0.74 0.33 80 1014.5
20260506093032 13 248 6.4 17.7 0.05 0.71 0.30 80 1014.5
20260506092523 13 249 8.0 22.5 0.05 0.71 0.30 80 1014.5
20260506092029 13 259 12.9 22.5 0.05 0.71 0.30 80 1014.5
20260506091538 13 271 9.7 25.7 0.05 0.71 0.30 80 1014.5
20260506091024 13 276 4.8 29.0 0.05 0.71 0.30 80 1014.4
20260506090546 13 226 12.9 29.0 0.05 0.71 0.30 80 1014.4
20260506090030 13 297 6.4 25.7 0.05 0.71 0.28 80 1014.4
20260506085537 13 271 12.9 20.9 0.05 0.71 0.28 80 1014.4
20260506084027 13 289 8.0 20.9 0.00 0.66 0.23 80 1014.3
20260506083535 13 266 11.3 19.3 0.00 0.66 0.23 80 1014.3
20260506083026 13 262 8.0 20.9 0.00 0.66 0.23 80 1014.3
20260506082020 13 266 8.0 29.0 0.00 0.66 0.23 80 1014.2
20260506081530 13 267 9.7 20.9 0.00 0.66 0.23 80 1014.2
20260506081036 13 263 8.0 20.9 0.00 0.66 0.23 80 1014.1
20260506080557 13 259 8.0 22.5 0.00 0.66 0.23 80 1014.1
20260506073523 13 238 12.9 24.1 0.00 0.66 0.23 80 1013.9
20260506073029 13 256 8.0 29.0 0.00 0.66 0.23 80 1013.9
20260506072025 13 290 12.9 29.0 0.00 0.66 0.23 80 1013.8
20260506071535 13 338 8.0 20.9 0.00 0.66 0.23 80 1013.8
20260506071022 13 248 8.0 19.3 0.00 0.66 0.23 80 1013.8
20260506070544 13 252 9.7 17.7 0.00 0.66 0.23 80 1013.8